• In Spain
  • List of Countries
  • For 7 days
  • Water Temperature
  • Satellite Maps
  • Weather Map
  • Weather Widgets
  • user-avatar
    Login

    Hourly Weather La Massana

    Today, 23 September, Saturday

    Time Temperature Precipitation Wind Pressure Humidity
    00:00 +6°C° 0 mm 0 mps 614 mmHg 88%
    01:00 +6°C° 0.1 mm 0 mps 614 mmHg 88%
    02:00 +6°C° 0.1 mm 1 mps 614 mmHg 87%
    03:00 +6°C° 0.1 mm 1 mps 613 mmHg 87%
    04:00 +6°C° 0 mm 1 mps 613 mmHg 86%
    05:00 +6°C° 0 mm 1 mps 613 mmHg 86%
    06:00 +6°C° 0 mm 1 mps 613 mmHg 85%
    07:00 +8°C° 0 mm 1 mps 614 mmHg 77%
    08:00 +10°C° 0 mm 1 mps 615 mmHg 69%
    09:00 +13°C° 0 mm 1 mps 616 mmHg 61%
    10:00 +14°C° 0.1 mm 1 mps 617 mmHg 57%
    11:00 +15°C° 0.1 mm 1 mps 617 mmHg 52%
    12:00 +16°C° 0.1 mm 2 mps 617 mmHg 47%
    13:00 +16°C° 0.2 mm 2 mps 617 mmHg 48%
    14:00 +16°C° 0.2 mm 1 mps 616 mmHg 48%
    15:00 +16°C° 0.2 mm 1 mps 616 mmHg 49%
    16:00 +14°C° 0 mm 1 mps 615 mmHg 56%
    17:00 +12°C° 0 mm 1 mps 614 mmHg 63%
    18:00 +10°C° 0 mm 1 mps 614 mmHg 70%
    19:00 +9°C° 0 mm 1 mps 614 mmHg 72%
    20:00 +9°C° 0 mm 1 mps 614 mmHg 73%
    21:00 +8°C° 0 mm 1 mps 614 mmHg 75%
    22:00 +8°C° 0 mm 1 mps 614 mmHg 72%
    23:00 +8°C° 0 mm 1 mps 613 mmHg 70%

    Tomorrow, 24 September, Sunday

    Time Temperature Precipitation Wind Pressure Humidity
    00:00 +8°C° 0 mm 1 mps 613 mmHg 68%
    01:00 +7°C° 0 mm 1 mps 613 mmHg 65%
    02:00 +7°C° 0 mm 1 mps 613 mmHg 63%
    03:00 +7°C° 0 mm 1 mps 613 mmHg 60%
    04:00 +7°C° 0 mm 1 mps 613 mmHg 59%
    05:00 +6°C° 0 mm 2 mps 613 mmHg 59%
    06:00 +6°C° 0 mm 2 mps 613 mmHg 58%
    07:00 +10°C° 0 mm 1 mps 615 mmHg 52%
    08:00 +13°C° 0 mm 1 mps 616 mmHg 47%
    09:00 +15°C° 0 mm 0 mps 617 mmHg 41%
    10:00 +18°C° 0 mm 1 mps 618 mmHg 39%
    11:00 +19°C° 0 mm 1 mps 618 mmHg 36%
    12:00 +20°C° 0 mm 1 mps 618 mmHg 34%
    13:00 +20°C° 0 mm 1 mps 618 mmHg 35%
    14:00 +20°C° 0 mm 1 mps 617 mmHg 36%
    15:00 +19°C° 0 mm 2 mps 617 mmHg 37%
    16:00 +16°C° 0 mm 1 mps 616 mmHg 46%
    17:00 +14°C° 0 mm 1 mps 615 mmHg 55%
    18:00 +11°C° 0 mm 1 mps 614 mmHg 64%
    19:00 +11°C° 0 mm 1 mps 614 mmHg 66%
    20:00 +10°C° 0 mm 1 mps 614 mmHg 68%
    21:00 +10°C° 0 mm 1 mps 614 mmHg 69%
    22:00 +10°C° 0 mm 1 mps 613 mmHg 69%
    23:00 +9°C° 0 mm 1 mps 613 mmHg 68%

    Day after tomorrow, 25 September, Monday

    Time Temperature Precipitation Wind Pressure Humidity
    00:00 +9°C° 0 mm 1 mps 613 mmHg 67%
    01:00 +9°C° 0 mm 1 mps 613 mmHg 67%
    02:00 +9°C° 0 mm 1 mps 612 mmHg 67%
    03:00 +9°C° 0 mm 1 mps 612 mmHg 66%
    04:00 +9°C° 0 mm 1 mps 612 mmHg 67%
    05:00 +9°C° 0 mm 1 mps 612 mmHg 67%
    06:00 +8°C° 0 mm 1 mps 612 mmHg 68%
    07:00 +11°C° 0 mm 1 mps 613 mmHg 61%
    08:00 +13°C° 0 mm 1 mps 615 mmHg 55%
    09:00 +15°C° 0 mm 1 mps 616 mmHg 48%
    10:00 +16°C° 0.4 mm 2 mps 616 mmHg 50%
    11:00 +16°C° 0.4 mm 2 mps 616 mmHg 52%
    12:00 +16°C° 0.4 mm 2 mps 616 mmHg 53%
    13:00 +15°C° 0.9 mm 2 mps 615 mmHg 59%
    14:00 +14°C° 0.9 mm 2 mps 615 mmHg 64%
    15:00 +14°C° 0.9 mm 2 mps 614 mmHg 69%
    16:00 +12°C° 0.8 mm 2 mps 614 mmHg 75%
    17:00 +10°C° 0.8 mm 2 mps 614 mmHg 80%
    18:00 +9°C° 0.8 mm 2 mps 614 mmHg 86%
    19:00 +8°C° 0.5 mm 2 mps 614 mmHg 88%
    20:00 +8°C° 0.5 mm 2 mps 614 mmHg 90%
    21:00 +7°C° 0.5 mm 2 mps 614 mmHg 92%
    22:00 +7°C° 0.2 mm 2 mps 614 mmHg 92%
    23:00 +8°C° 0.2 mm 1 mps 614 mmHg 92%

    26 September, Tuesday

    Time Temperature Precipitation Wind Pressure Humidity
    00:00 +8°C° 0.2 mm 1 mps 613 mmHg 93%
    01:00 +8°C° 0.1 mm 1 mps 613 mmHg 93%
    02:00 +7°C° 0.1 mm 1 mps 613 mmHg 93%
    03:00 +7°C° 0.1 mm 1 mps 613 mmHg 93%
    04:00 +7°C° 0.1 mm 1 mps 613 mmHg 93%
    05:00 +6°C° 0.1 mm 0 mps 613 mmHg 94%
    06:00 +5°C° 0.1 mm 0 mps 612 mmHg 94%
    07:00 +7°C° 0.1 mm 1 mps 613 mmHg 90%
    08:00 +8°C° 0.1 mm 1 mps 614 mmHg 86%
    09:00 +9°C° 0.1 mm 1 mps 614 mmHg 82%
    10:00 +10°C° 0.1 mm 1 mps 614 mmHg 78%
    11:00 +11°C° 0.1 mm 1 mps 615 mmHg 74%
    12:00 +12°C° 0.1 mm 1 mps 615 mmHg 70%
    13:00 +12°C° 0.2 mm 1 mps 615 mmHg 70%
    14:00 +12°C° 0.2 mm 1 mps 614 mmHg 71%
    15:00 +11°C° 0.2 mm 1 mps 614 mmHg 71%
    16:00 +10°C° 0.1 mm 1 mps 614 mmHg 77%
    17:00 +9°C° 0.1 mm 1 mps 614 mmHg 82%
    18:00 +7°C° 0.1 mm 0 mps 613 mmHg 87%
    19:00 +7°C° 0.1 mm 0 mps 613 mmHg 88%
    20:00 +6°C° 0.1 mm 0 mps 613 mmHg 90%
    21:00 +6°C° 0.1 mm 0 mps 614 mmHg 91%
    22:00 +6°C° 0 mm 0 mps 614 mmHg 92%
    23:00 +6°C° 0 mm 0 mps 613 mmHg 92%

    27 September, Wednesday

    Time Temperature Precipitation Wind Pressure Humidity
    00:00 +6°C° 0 mm 1 mps 613 mmHg 92%
    01:00 +6°C° 0 mm 1 mps 613 mmHg 92%
    02:00 +6°C° 0 mm 1 mps 613 mmHg 92%
    03:00 +6°C° 0 mm 1 mps 613 mmHg 91%
    04:00 +5°C° 0 mm 1 mps 613 mmHg 91%
    05:00 +5°C° 0 mm 1 mps 613 mmHg 91%
    06:00 +5°C° 0 mm 1 mps 613 mmHg 90%
    07:00 +7°C° 0 mm 1 mps 614 mmHg 82%
    08:00 +10°C° 0 mm 1 mps 616 mmHg 73%
    09:00 +12°C° 0 mm 1 mps 617 mmHg 65%
    10:00 +14°C° 0 mm 1 mps 617 mmHg 58%
    11:00 +15°C° 0 mm 1 mps 618 mmHg 52%
    12:00 +16°C° 0 mm 1 mps 618 mmHg 45%
    13:00 +16°C° 0 mm 1 mps 618 mmHg 46%
    14:00 +16°C° 0 mm 1 mps 618 mmHg 46%
    15:00 +15°C° 0 mm 1 mps 618 mmHg 46%
    16:00 +13°C° 0 mm 1 mps 617 mmHg 54%
    17:00 +11°C° 0 mm 1 mps 616 mmHg 62%
    18:00 +9°C° 0 mm 1 mps 616 mmHg 71%
    19:00 +9°C° 0 mm 1 mps 616 mmHg 73%
    20:00 +8°C° 0 mm 1 mps 616 mmHg 75%
    21:00 +8°C° 0 mm 1 mps 616 mmHg 78%
    22:00 +7°C° 0 mm 1 mps 615 mmHg 78%
    23:00 +7°C° 0 mm 1 mps 615 mmHg 78%

    28 September, Thursday

    Time Temperature Precipitation Wind Pressure Humidity
    00:00 +7°C° 0 mm 1 mps 615 mmHg 77%
    01:00 +7°C° 0 mm 1 mps 615 mmHg 74%
    02:00 +7°C° 0 mm 1 mps 615 mmHg 71%
    03:00 +7°C° 0 mm 1 mps 615 mmHg 68%
    04:00 +7°C° 0 mm 1 mps 615 mmHg 61%
    05:00 +7°C° 0 mm 1 mps 615 mmHg 55%
    06:00 +7°C° 0 mm 1 mps 615 mmHg 49%
    07:00 +10°C° 0 mm 1 mps 617 mmHg 44%
    08:00 +12°C° 0 mm 1 mps 618 mmHg 39%
    09:00 +15°C° 0 mm 1 mps 619 mmHg 34%
    10:00 +16°C° 0 mm 1 mps 620 mmHg 34%
    11:00 +19°C° 0 mm 1 mps 620 mmHg 34%
    12:00 +20°C° 0 mm 1 mps 621 mmHg 33%
    13:00 +19°C° 0 mm 1 mps 620 mmHg 35%
    14:00 +19°C° 0 mm 1 mps 620 mmHg 37%
    15:00 +18°C° 0 mm 2 mps 620 mmHg 39%
    16:00 +16°C° 0 mm 1 mps 619 mmHg 48%
    17:00 +13°C° 0 mm 1 mps 618 mmHg 57%
    18:00 +11°C° 0 mm 1 mps 617 mmHg 66%
    19:00 +11°C° 0 mm 1 mps 617 mmHg 68%
    20:00 +10°C° 0 mm 1 mps 617 mmHg 70%
    21:00 +9°C° 0 mm 1 mps 617 mmHg 72%
    22:00 +9°C° 0 mm 1 mps 617 mmHg 71%
    23:00 +9°C° 0 mm 1 mps 617 mmHg 71%
    Show more